HAWK-2B

导读

HAWK-2B是美国于2021年1月24日08:00发射的一颗卫星,隶属于HAWK系列卫星项目。作为美国商业航天领域微小卫星布局的组成部分,该卫星主要承担技术验证相关任务,测试新型卫星总线、空间通信等相关技术,为后续同类型卫星的发展积累在轨运行经验,推动微小卫星技术的迭代优化,服务于航天技术创新与应用拓展。

基本信息
目录编号:
47508
目录名称:
HAWK-2B
国际标识:
2021-006CZ
轨道中心:
EARTH
卫星名称:
HAWK-2B
卫星全名:
--
卫星状态:
在轨 (已飞行2049 天)
发射日期:
2021-01-24 UTC
国别 :
美国 (US)
星等 :
--
轨道信息
数据来源 国际轨道数据 AOE轨道数据
星历时间 2026-09-03T21:25:21+0800
13小时前
查看轨道信息
2026-09-01T23:00:00+0800
2天前
查看轨道信息
半长轴 6836.938km 6836.977km
偏心率 0.0004846 0.0004945
轨道倾角 97.213° 97.215°
近地点辐角 284.695° 294.771°
升交点赤经 288.260° 286.365°
平近点角 75.375° 178.572°
近地点 455.487km 455.459km
远地点 462.115km 462.221km
周期 93.767分钟 93.768分钟
每日圈数 15.35714 15.35701
详细信息
使用方式:
暂无
2D轨道图
3D轨道图
轨道高度分析图
轨道倾角分析图
轨道综合分析图
查看轨道综合分析图
交会数据列表
事件ID 空间交会对象 最接近时刻(TCA) 交会距离 交会风险概率(CRP) 交会风险指数(CRI) 操作
CDM_260903-164304-750805-396721
HAWK-2B (47508)
2026-09-03T
16:43:18+0000
0.923 km
远距离
3.483404E-5 中风险 0.66
CDM_260905-074104-750806-542221
HAWK-2B (47508)
2026-09-05T
07:41:22+0000
1.309 km
极远距离
1.061679E-5 中风险 0.56
CDM_260905-051604-750805-234221
HAWK-2B (47508)
2026-09-05T
05:16:40+0000
1.942 km
极远距离
3.082329E-6 低风险 0.45
CDM_260905-031104-750806-036121
HAWK-2B (47508)
2026-09-05T
03:11:11+0000
1.852 km
极远距离
2.98735E-6 低风险 0.45
CDM_260904-194404-750806-232221
HAWK-2B (47508)
2026-09-04T
19:44:50+0000
1.974 km
极远距离
2.898827E-6 低风险 0.44
CDM_260903-233004-750806-429521
HAWK-2B (47508)
2026-09-03T
23:30:45+0000
2.040 km
极远距离
2.761663E-6 低风险 0.44
CDM_260903-200304-750806-760621
HAWK-2B (47508)
2026-09-03T
20:03:41+0000
2.980 km
极远距离
5.582645E-7 极低风险 0.3